Location: Prescott
(34.5400°N, 112.4680°W)
Time: 03:29:44
(UTC-07:00)

Tiangong 2 - Visible Passes

Search period start: 19 November 2017 00:00
Search period end: 29 November 2017 00:00
Orbit: 386 x 391 km, 42.8° (Epoch: 18 November)

Date Brightness Start Highest point End Pass type
(mag) Time Alt. Az. Time Alt. Az. Time Alt. Az.
24 Nov 4.1 06:09:58 10° S 06:12:01 16° SE 06:14:04 10° E visible
26 Nov 2.7 05:49:40 12° SSW 05:52:14 33° SE 05:55:09 10° E visible
27 Nov 4.2 04:55:11 15° ESE 04:55:11 15° ESE 04:56:21 10° E visible
27 Nov 1.1 06:27:36 10° WSW 06:30:45 61° NNW 06:33:55 10° NE visible
28 Nov 1.4 05:32:47 66° ESE 05:32:47 66° ESE 05:35:42 10° ENE visible
